Simultaneous Nadir Overpasses (SNOs) Predictions

Prediction of SNOs between LANDSAT-8 and METOP-A Satellite Orbit:

Table of predicted SNOs for the next 14.0 days since TLE Epoch: 6/1/2018
Index Date (LANDSAT-8) Time (LANDSAT-8) Lat,Lon (LANDSAT-8) SZA (LANDSAT-8 ) Date (METOP-A) Time (METOP-A) Lat,Lon (METOP-A) SZA (METOP-A ) Distance(km) Time Diff (sec)
1 06/04/2018 13:16:05 -81.36,-154.92 118.51 06/04/2018 13:15:28 -81.37,-154.83 118.51 1.55 37
2 06/04/2018 14:05:31 81.37, 12.81 61.51 06/04/2018 14:06:08 81.37, 12.82 61.53 0.22 37
3 06/07/2018 08:50:20 -81.36, -88.63 118.84 06/07/2018 08:49:46 -81.36, -88.66 118.85 0.62 34
4 06/07/2018 09:39:45 81.38, 79.46 61.23 06/07/2018 09:40:25 81.37, 79.38 61.24 1.40 40
5 06/10/2018 04:24:34 -81.37, -22.00 119.07 06/10/2018 04:24:03 -81.36, -22.11 119.09 1.81 31
6 06/10/2018 05:14:00 81.37, 145.67 60.94 06/10/2018 05:14:43 81.37, 145.53 60.95 2.44 43
7 06/12/2018 23:58:47 -81.37, 44.60 119.25 06/12/2018 23:58:19 -81.37, 44.43 119.28 2.97 28
8 06/13/2018 00:48:13 81.37,-147.76 60.75 06/13/2018 00:48:59 81.37,-147.95 60.75 3.24 46
9 06/15/2018 19:33:02 -81.36, 110.77 119.44 06/15/2018 19:32:36 -81.37, 110.94 119.43 3.00 26




NCC Satellite Simultaneous Nadir Overpasses (SNOs) Prediction Service
